Time,TemperatureF,DewpointF,PressureIn,WindDirection,WindDirectionDegrees,WindSpeedMPH,WindSpeedGustMPH,Humidity,HourlyPrecipIn,Conditions,Clouds,dailyrainin,SoftwareType,DateUTC
2013-08-08 00:07:00,82.4,74.1,29.83,NNW,337,2.2,-999.0,76,-99.99,,,0.00,Acu-Link.com,2013-08-08 04:07:00,
2013-08-08 00:22:00,82.4,74.1,29.83,NNW,337,2.7,-999.0,76,-99.99,,,0.00,Acu-Link.com,2013-08-08 04:22:00,
2013-08-08 00:37:00,82.2,74.3,29.83,NNE,22,3.2,-999.0,77,-99.99,,,0.00,Acu-Link.com,2013-08-08 04:37:00,
2013-08-08 00:52:00,82.4,74.1,29.82,NNE,22,3.2,-999.0,76,-99.99,,,0.00,Acu-Link.com,2013-08-08 04:52:00,
2013-08-08 01:07:00,82.4,73.7,29.81,North,0,2.2,-999.0,75,-99.99,,,0.00,Acu-Link.com,2013-08-08 05:07:00,
2013-08-08 01:22:00,82.4,73.7,29.81,North,0,1.7,-999.0,75,-99.99,,,0.00,Acu-Link.com,2013-08-08 05:22:00,
2013-08-08 01:37:00,82.4,73.7,29.81,North,0,2.2,-999.0,75,-99.99,,,0.00,Acu-Link.com,2013-08-08 05:37:00,
2013-08-08 01:52:00,81.5,72.8,29.81,North,0,3.2,-999.0,75,-99.99,,,0.00,Acu-Link.com,2013-08-08 05:52:00,
2013-08-08 02:08:00,81.1,74.0,29.80,North,0,1.7,-999.0,79,-99.99,,,0.00,Acu-Link.com,2013-08-08 06:08:00,
2013-08-08 02:23:00,81.1,74.0,29.79,North,0,2.7,-999.0,79,-99.99,,,0.00,Acu-Link.com,2013-08-08 06:23:00,
2013-08-08 02:38:00,81.5,73.6,29.79,North,0,3.2,-999.0,77,-99.99,,,0.00,Acu-Link.com,2013-08-08 06:38:00,
2013-08-08 02:53:00,81.7,73.4,29.79,North,0,4.7,-999.0,76,-99.99,,,0.00,Acu-Link.com,2013-08-08 06:53:00,
2013-08-08 03:08:00,81.7,73.4,29.78,North,0,2.7,-999.0,76,-99.99,,,0.00,Acu-Link.com,2013-08-08 07:08:00,
2013-08-08 03:23:00,81.7,73.8,29.78,North,0,1.7,-999.0,77,-99.99,,,0.00,Acu-Link.com,2013-08-08 07:23:00,
2013-08-08 03:38:00,81.7,73.0,29.78,North,0,4.2,-999.0,75,-99.99,,,0.00,Acu-Link.com,2013-08-08 07:38:00,
2013-08-08 03:53:00,81.9,74.0,29.78,North,0,1.7,-999.0,77,-99.99,,,0.00,Acu-Link.com,2013-08-08 07:53:00,
2013-08-08 04:08:00,81.5,74.0,29.78,North,0,2.2,-999.0,78,-99.99,,,0.00,Acu-Link.com,2013-08-08 08:08:00,
2013-08-08 04:24:00,81.5,74.0,29.79,North,0,1.7,-999.0,78,-99.99,,,0.00,Acu-Link.com,2013-08-08 08:24:00,
2013-08-08 04:39:00,81.5,73.6,29.79,North,0,1.7,-999.0,77,-99.99,,,0.00,Acu-Link.com,2013-08-08 08:39:00,
2013-08-08 04:54:00,81.3,73.8,29.78,North,0,1.7,-999.0,78,-99.99,,,0.00,Acu-Link.com,2013-08-08 08:54:00,
2013-08-08 05:09:00,81.3,73.8,29.79,North,0,0.0,-999.0,78,-99.99,,,0.00,Acu-Link.com,2013-08-08 09:09:00,
2013-08-08 05:24:00,81.3,74.1,29.78,North,0,0.0,-999.0,79,-99.99,,,0.00,Acu-Link.com,2013-08-08 09:24:00,
2013-08-08 05:39:00,81.0,73.9,29.79,North,0,1.7,-999.0,79,-99.99,,,0.00,Acu-Link.com,2013-08-08 09:39:00,
2013-08-08 05:54:00,80.6,73.8,29.79,North,0,0.0,-999.0,80,-99.99,,,0.00,Acu-Link.com,2013-08-08 09:54:00,
2013-08-08 06:09:00,79.9,74.3,29.80,North,0,0.0,-999.0,83,-99.99,,,0.00,Acu-Link.com,2013-08-08 10:09:00,
2013-08-08 06:24:00,80.2,73.8,29.79,North,0,2.2,-999.0,81,-99.99,,,0.00,Acu-Link.com,2013-08-08 10:24:00,
2013-08-08 06:40:00,80.4,74.0,29.80,North,0,2.2,-999.0,81,-99.99,,,0.00,Acu-Link.com,2013-08-08 10:40:00,
2013-08-08 06:55:00,81.1,74.3,29.81,North,0,0.0,-999.0,80,-99.99,,,0.00,Acu-Link.com,2013-08-08 10:55:00,
2013-08-08 07:10:00,81.1,74.0,29.80,North,0,1.1,-999.0,79,-99.99,,,0.00,Acu-Link.com,2013-08-08 11:10:00,
2013-08-08 07:25:00,81.5,74.3,29.80,North,0,1.7,-999.0,79,-99.99,,,0.00,Acu-Link.com,2013-08-08 11:25:00,
2013-08-08 07:40:00,82.0,74.8,29.80,North,0,2.2,-999.0,79,-99.99,,,0.00,Acu-Link.com,2013-08-08 11:40:00,
2013-08-08 07:55:00,82.4,74.8,29.80,North,0,1.1,-999.0,78,-99.99,,,0.00,Acu-Link.com,2013-08-08 11:55:00,
2013-08-08 08:10:00,84.2,75.4,29.80,NW,315,1.1,-999.0,75,-99.99,,,0.00,Acu-Link.com,2013-08-08 12:10:00,
2013-08-08 08:25:00,84.4,74.4,29.80,NNE,22,2.7,-999.0,72,-99.99,,,0.00,Acu-Link.com,2013-08-08 12:25:00,
2013-08-08 08:40:00,84.7,74.2,29.81,NNW,337,3.2,-999.0,71,-99.99,,,0.00,Acu-Link.com,2013-08-08 12:40:00,
2013-08-08 08:56:00,85.6,74.2,29.82,North,0,5.8,-999.0,69,-99.99,,,0.00,Acu-Link.com,2013-08-08 12:56:00,
2013-08-08 09:11:00,86.4,74.1,29.82,NNW,337,4.2,-999.0,67,-99.99,,,0.00,Acu-Link.com,2013-08-08 13:11:00,
2013-08-08 09:26:00,86.7,74.4,29.82,NNW,337,3.2,-999.0,67,-99.99,,,0.00,Acu-Link.com,2013-08-08 13:26:00,
2013-08-08 09:41:00,85.8,74.4,29.82,NW,315,2.2,-999.0,69,-99.99,,,0.00,Acu-Link.com,2013-08-08 13:41:00,
2013-08-08 09:56:00,87.8,75.0,29.81,West,270,7.3,-999.0,66,-99.99,,,0.00,Acu-Link.com,2013-08-08 13:56:00,
2013-08-08 10:11:00,87.3,74.1,29.82,NNW,337,4.2,-999.0,65,-99.99,,,0.00,Acu-Link.com,2013-08-08 14:11:00,
2013-08-08 10:26:00,86.7,74.0,29.81,NNW,337,4.2,-999.0,66,-99.99,,,0.00,Acu-Link.com,2013-08-08 14:26:00,
2013-08-08 10:41:00,86.5,73.8,29.81,North,0,7.3,-999.0,66,-99.99,,,0.00,Acu-Link.com,2013-08-08 14:41:00,
2013-08-08 10:56:00,86.7,74.0,29.82,NW,315,6.8,-999.0,66,-99.99,,,0.00,Acu-Link.com,2013-08-08 14:56:00,
2013-08-08 11:11:00,87.4,73.7,29.83,NNW,337,2.7,-999.0,64,-99.99,,,0.00,Acu-Link.com,2013-08-08 15:11:00,
2013-08-08 11:27:00,86.4,74.1,29.82,North,0,2.7,-999.0,67,-99.99,,,0.00,Acu-Link.com,2013-08-08 15:27:00,
2013-08-08 11:42:00,87.1,72.9,29.82,NNW,337,3.7,-999.0,63,-99.99,,,0.00,Acu-Link.com,2013-08-08 15:42:00,
2013-08-08 11:57:00,86.9,74.1,29.82,NNW,337,3.7,-999.0,66,-99.99,,,0.00,Acu-Link.com,2013-08-08 15:57:00,
2013-08-08 12:12:00,87.4,73.7,29.82,NW,315,5.8,-999.0,64,-99.99,,,0.00,Acu-Link.com,2013-08-08 16:12:00,
2013-08-08 12:27:00,88.2,74.5,29.82,NW,315,4.2,-999.0,64,-99.99,,,0.00,Acu-Link.com,2013-08-08 16:27:00,
2013-08-08 12:42:00,88.5,74.7,29.82,West,270,2.2,-999.0,64,-99.99,,,0.00,Acu-Link.com,2013-08-08 16:42:00,
2013-08-08 12:57:00,87.3,74.1,29.81,NNW,337,3.2,-999.0,65,-99.99,,,0.00,Acu-Link.com,2013-08-08 16:57:00,
2013-08-08 13:12:00,88.0,73.8,29.82,NNW,337,4.2,-999.0,63,-99.99,,,0.00,Acu-Link.com,2013-08-08 17:12:00,
2013-08-08 13:28:00,86.9,74.1,29.81,North,0,5.3,-999.0,66,-99.99,,,0.00,Acu-Link.com,2013-08-08 17:28:00,
2013-08-08 13:43:00,88.3,73.6,29.81,NNW,337,5.8,-999.0,62,-99.99,,,0.00,Acu-Link.com,2013-08-08 17:43:00,
2013-08-08 13:58:00,88.7,74.5,29.81,NNW,337,7.3,-999.0,63,-99.99,,,0.00,Acu-Link.com,2013-08-08 17:58:00,
2013-08-08 14:13:00,87.4,73.2,29.81,North,0,5.8,-999.0,63,-99.99,,,0.00,Acu-Link.com,2013-08-08 18:13:00,
2013-08-08 14:28:00,88.5,73.3,29.80,North,0,5.8,-999.0,61,-99.99,,,0.00,Acu-Link.com,2013-08-08 18:28:00,
2013-08-08 14:43:00,88.3,73.6,29.81,NW,315,3.7,-999.0,62,-99.99,,,0.00,Acu-Link.com,2013-08-08 18:43:00,
2013-08-08 14:58:00,88.3,74.1,29.79,NNW,337,2.7,-999.0,63,-99.99,,,0.00,Acu-Link.com,2013-08-08 18:58:00,
2013-08-08 15:13:00,88.5,73.8,29.80,NNW,337,4.7,-999.0,62,-99.99,,,0.00,Acu-Link.com,2013-08-08 19:13:00,
2013-08-08 15:28:00,89.2,75.4,29.79,NW,315,4.2,-999.0,64,-99.99,,,0.00,Acu-Link.com,2013-08-08 19:28:00,
2013-08-08 15:44:00,88.2,73.5,29.79,North,0,6.8,-999.0,62,-99.99,,,0.00,Acu-Link.com,2013-08-08 19:44:00,
2013-08-08 15:59:00,88.5,74.3,29.79,NNW,337,3.7,-999.0,63,-99.99,,,0.00,Acu-Link.com,2013-08-08 19:59:00,
2013-08-08 16:14:00,88.2,73.0,29.79,NNW,337,3.2,-999.0,61,-99.99,,,0.00,Acu-Link.com,2013-08-08 20:14:00,
2013-08-08 16:29:00,89.1,72.9,29.79,SW,225,2.7,-999.0,59,-99.99,,,0.00,Acu-Link.com,2013-08-08 20:29:00,
2013-08-08 16:44:00,88.0,72.3,29.79,North,0,2.7,-999.0,60,-99.99,,,0.00,Acu-Link.com,2013-08-08 20:44:00,
2013-08-08 16:59:00,88.0,72.3,29.79,NNW,337,3.7,-999.0,60,-99.99,,,0.00,Acu-Link.com,2013-08-08 20:59:00,
2013-08-08 17:14:00,88.2,73.0,29.79,WSW,247,2.7,-999.0,61,-99.99,,,0.00,Acu-Link.com,2013-08-08 21:14:00,
2013-08-08 17:29:00,87.3,72.7,29.78,NNW,337,3.7,-999.0,62,-99.99,,,0.00,Acu-Link.com,2013-08-08 21:29:00,
2013-08-08 17:44:00,86.5,72.8,29.79,NNW,337,2.7,-999.0,64,-99.99,,,0.00,Acu-Link.com,2013-08-08 21:44:00,
2013-08-08 17:59:00,86.7,72.1,29.79,NNW,337,4.7,-999.0,62,-99.99,,,0.00,Acu-Link.com,2013-08-08 21:59:00,
2013-08-08 18:15:00,87.1,72.0,29.80,NNW,337,2.2,-999.0,61,-99.99,,,0.00,Acu-Link.com,2013-08-08 22:15:00,
2013-08-08 18:30:00,86.5,72.4,29.80,North,0,3.2,-999.0,63,-99.99,,,0.00,Acu-Link.com,2013-08-08 22:30:00,
2013-08-08 18:45:00,86.2,73.5,29.81,NNW,337,3.2,-999.0,66,-99.99,,,0.00,Acu-Link.com,2013-08-08 22:45:00,
2013-08-08 19:00:00,85.3,73.5,29.80,NW,315,4.7,-999.0,68,-99.99,,,0.00,Acu-Link.com,2013-08-08 23:00:00,
2013-08-08 19:15:00,84.7,73.4,29.82,North,0,3.7,-999.0,69,-99.99,,,0.00,Acu-Link.com,2013-08-08 23:15:00,
2013-08-08 19:30:00,84.7,72.9,29.82,NNW,337,4.2,-999.0,68,-99.99,,,0.00,Acu-Link.com,2013-08-08 23:30:00,
2013-08-08 19:45:00,84.2,72.5,29.81,NNW,337,1.7,-999.0,68,-99.99,,,0.00,Acu-Link.com,2013-08-08 23:45:00,
2013-08-08 20:00:00,84.0,73.6,29.83,North,0,4.2,-999.0,71,-99.99,,,0.00,Acu-Link.com,2013-08-09 00:00:00,
2013-08-08 20:46:00,83.1,72.3,29.85,West,270,3.2,-999.0,70,-99.99,,,0.00,Acu-Link.com,2013-08-09 00:46:00,
2013-08-08 21:31:00,82.8,73.2,29.85,NW,315,1.7,-999.0,73,-99.99,,,0.00,Acu-Link.com,2013-08-09 01:31:00,
2013-08-08 22:01:00,82.4,72.9,29.86,NW,315,1.7,-999.0,73,-99.99,,,0.00,Acu-Link.com,2013-08-09 02:01:00,
2013-08-08 22:16:00,82.2,73.1,29.86,West,270,1.7,-999.0,74,-99.99,,,0.00,Acu-Link.com,2013-08-09 02:16:00,
2013-08-08 22:31:00,82.4,72.9,29.87,NW,315,2.7,-999.0,73,-99.99,,,0.00,Acu-Link.com,2013-08-09 02:31:00,
2013-08-08 23:02:00,82.0,72.9,29.87,NW,315,1.7,-999.0,74,-99.99,,,0.00,Acu-Link.com,2013-08-09 03:02:00,
2013-08-08 23:17:00,81.9,73.6,29.87,NW,315,1.1,-999.0,76,-99.99,,,0.00,Acu-Link.com,2013-08-09 03:17:00,
2013-08-08 23:32:00,82.0,73.3,29.87,NW,315,0.0,-999.0,75,-99.99,,,0.00,Acu-Link.com,2013-08-09 03:32:00,
2013-08-08 23:48:00,81.9,72.8,29.87,NW,315,1.1,-999.0,74,-99.99,,,0.00,Acu-Link.com,2013-08-09 03:48:00,